Theta_e
313 313 313 313 313 311 310 309 308 308 308 308 307 306 305 304 305 305 307 307 307 308 308 307 307 308 308 310 311 312 314 315 314 315 316 315 313 313 314 314 315 315 314 313 313 313 313 314 314 314 316 315 315 316 315 314 313 317 319 316 313 315 316 316 317 315 315 316 313 311 311 314 314 311 310 311 312 313 313 312 313 312 313 313 313 311 311 319
314 313 312 312 313 312 310 309 308 308 308 307 306 306 304 304 305 306 307 307 308 308 308 307 307 308 309 310 311 313 316 316 314 315 315 315 313 313 315 314 315 315 314 314 313 313 314 314 314 313 316 315 314 316 316 314 314 317 318 315 314 318 316 314 316 314 314 315 314 311 310 312 313 313 311 312 314 313 313 314 313 313 314 314 313 313 314 319
313 313 312 312 312 311 310 309 308 308 308 306 305 305 304 305 305 306 307 307 308 307 307 307 307 308 309 311 311 313 316 316 314 315 314 314 314 313 315 315 315 315 315 315 314 314 314 314 313 314 316 315 313 315 317 315 314 314 316 315 315 317 314 311 313 313 311 312 313 312 309 310 312 312 311 313 314 313 314 315 314 314 315 315 315 316 317 320
313 313 312 312 311 311 309 309 309 308 307 306 305 305 304 305 305 306 307 307 307 307 307 307 308 309 310 311 312 314 316 315 314 314 314 313 313 313 314 315 316 316 316 315 315 314 314 314 313 315 316 315 313 314 315 313 314 314 314 315 314 313 314 311 310 310 308 309 313 312 310 311 311 310 311 313 314 314 315 315 315 315 315 316 316 318 319 321
313 312 311 311 311 311 310 309 309 309 308 307 305 304 304 304 305 306 306 307 307 307 307 307 309 309 310 312 312 314 315 314 313 313 313 313 313 313 314 315 316 316 316 315 315 314 313 314 315 316 316 315 315 315 314 311 312 314 312 312 310 310 314 311 308 308 307 308 311 311 311 312 310 310 312 313 314 315 315 315 315 314 314 316 316 319 321 321
312 312 311 311 311 311 310 309 309 310 309 308 306 304 304 305 305 306 306 307 307 307 307 308 309 309 310 312 312 313 315 313 312 313 313 313 312 313 315 316 316 316 316 315 314 314 314 315 315 317 315 314 315 314 313 309 310 314 312 309 309 310 312 310 307 308 307 310 312 312 312 311 311 312 311 311 314 314 313 312 313 312 311 314 318 319 320 321
311 311 310 310 311 311 310 310 310 311 310 308 307 305 305 305 305 306 306 306 307 307 308 308 309 310 311 312 312 314 315 313 312 313 313 313 312 313 315 316 316 315 315 315 314 315 315 315 315 315 315 314 313 313 312 310 311 314 314 310 309 308 310 309 307 307 307 310 311 310 311 311 312 313 310 310 313 313 311 310 312 311 308 311 317 319 320 322
311 310 310 310 310 310 311 310 309 309 309 308 307 306 305 306 306 306 306 306 307 308 308 309 309 310 312 313 314 314 314 315 314 314 313 313 312 313 315 316 315 315 315 314 314 315 315 315 315 314 315 314 313 313 311 312 314 314 314 311 310 309 310 308 306 307 307 309 309 309 312 312 312 311 309 311 313 313 312 311 311 311 309 311 315 317 321 322
310 310 309 309 309 309 310 310 309 309 308 307 306 306 305 305 306 306 306 307 308 309 309 310 310 311 311 312 314 311 312 316 317 314 313 312 312 313 315 316 316 315 314 313 313 314 315 315 314 314 315 313 312 313 311 314 315 313 313 312 312 312 310 308 308 308 308 309 308 311 314 312 309 309 312 314 314 313 312 311 311 311 311 312 313 316 321 322
311 310 309 308 308 308 309 308 307 307 307 307 306 306 305 305 306 306 306 307 308 309 310 310 311 312 311 311 312 310 313 317 317 314 313 312 312 313 315 315 315 315 314 313 313 313 315 315 313 313 314 313 312 312 311 314 314 311 311 312 313 313 310 309 311 309 309 310 309 312 315 312 309 310 315 316 312 311 311 311 311 311 313 312 313 315 318 320
311 310 309 308 307 307 308 307 305 306 307 307 306 306 305 305 306 306 306 307 309 310 311 311 311 312 312 312 311 310 314 318 316 314 313 312 313 314 316 316 315 315 314 314 313 312 313 313 312 313 315 314 312 312 311 311 311 310 311 314 314 313 312 311 312 311 311 312 309 312 314 311 310 311 316 316 309 309 312 313 311 312 314 313 313 313 315 317
311 310 309 308 307 307 308 307 306 308 309 308 307 305 305 305 306 307 307 308 310 311 311 311 312 312 312 311 310 314 317 317 314 313 312 312 314 315 316 316 316 315 315 315 313 312 312 311 312 314 314 313 313 314 312 309 310 311 312 316 316 315 315 312 312 310 311 313 309 311 314 313 313 313 316 313 308 309 311 313 313 312 313 313 313 312 313 315
311 309 309 308 307 307 308 308 309 309 308 309 308 306 306 305 306 307 308 310 311 312 312 312 313 312 311 310 312 317 319 316 313 312 312 313 314 315 316 315 315 315 315 315 313 312 311 312 313 313 312 313 314 312 311 310 311 313 313 315 317 316 316 313 312 310 312 312 309 311 314 315 317 315 315 311 308 311 312 313 313 313 313 312 312 311 312 314
310 309 309 309 307 307 309 309 309 309 308 309 308 306 306 306 307 308 309 311 312 312 312 312 312 311 310 311 313 317 318 315 313 312 313 314 314 315 315 315 315 315 315 314 312 312 312 312 313 313 311 312 312 311 313 314 313 315 314 315 317 314 314 314 311 311 314 311 308 313 313 315 318 317 314 309 308 311 312 314 314 313 312 312 312 311 312 313
310 310 310 309 308 308 309 309 310 310 309 309 308 307 306 307 308 309 310 312 312 313 313 313 312 312 309 310 313 316 317 316 313 313 313 314 314 315 314 315 315 314 314 314 312 312 312 313 313 313 311 309 312 314 315 315 314 314 312 314 317 313 314 316 311 310 314 311 309 314 315 315 318 317 313 307 308 310 312 314 314 313 312 311 312 311 311 313
310 310 310 310 309 308 310 310 311 311 309 309 308 308 308 308 309 310 311 312 313 314 313 313 311 311 309 310 313 314 315 317 315 313 313 313 315 315 314 314 314 313 313 313 313 313 313 313 312 311 312 311 314 316 316 315 315 315 313 313 316 315 314 315 311 308 311 311 311 313 315 316 317 315 311 307 308 310 311 313 313 313 312 311 311 311 311 312
311 310 310 310 310 310 310 310 310 310 310 309 309 310 310 310 311 312 313 313 314 314 313 312 309 310 310 310 312 313 314 316 315 314 313 314 315 314 314 313 312 313 314 314 313 314 314 313 311 312 313 313 314 316 314 312 312 315 315 314 315 315 313 313 313 310 308 311 313 313 314 316 316 316 314 310 309 310 312 313 314 313 312 311 311 310 311 311
311 310 310 310 310 311 310 310 310 310 311 311 311 312 312 313 314 314 314 313 312 310 311 311 309 310 310 309 312 313 314 316 315 314 314 314 314 314 314 313 312 314 314 315 314 314 314 314 314 316 316 314 314 315 312 311 311 313 315 314 314 314 313 314 314 312 310 311 313 314 314 315 316 316 316 314 311 311 312 313 314 314 312 312 311 310 310 310
311 311 311 310 310 310 309 310 311 311 312 312 313 314 314 314 315 314 314 312 310 308 310 311 309 311 312 310 313 314 314 314 314 314 313 313 313 313 314 313 314 316 314 316 315 314 315 316 316 316 316 315 315 315 313 313 313 314 316 314 313 313 313 315 315 311 311 313 314 315 315 316 316 316 316 316 313 311 312 312 313 313 312 312 311 311 311 311
312 312 311 310 310 310 310 310 311 311 312 313 314 313 313 314 314 313 313 312 310 309 311 312 310 312 313 312 314 315 314 314 315 314 312 312 313 314 313 313 317 316 314 317 317 313 314 317 317 316 316 316 316 315 313 312 313 315 317 315 316 315 313 315 315 311 310 314 316 316 316 317 316 316 317 316 314 312 312 312 312 313 313 313 312 312 312 312
312 312 312 311 311 311 310 310 311 311 312 314 313 311 311 312 312 311 311 312 310 309 311 312 311 312 313 312 314 314 314 315 315 314 313 312 313 315 314 313 316 315 315 317 316 312 314 316 317 317 315 314 314 313 312 313 314 315 315 315 317 316 315 315 315 312 310 313 316 316 316 316 316 316 316 316 315 314 313 313 314 314 314 314 314 314 313 313
313 313 312 311 311 311 310 310 311 311 312 314 312 309 310 311 310 309 310 311 312 309 312 313 311 312 312 312 314 314 315 316 315 315 314 312 313 314 314 314 315 315 315 315 315 315 316 317 317 315 312 311 311 311 312 314 314 315 316 316 316 316 316 315 314 312 310 313 316 316 316 317 317 316 316 316 316 316 315 314 315 315 316 316 315 315 314 313
313 313 312 312 311 311 311 311 311 311 312 314 311 309 311 311 310 310 311 311 313 311 312 314 312 313 313 312 314 313 314 315 315 316 314 312 313 314 314 314 314 315 315 315 316 317 316 316 315 311 311 312 311 311 313 314 315 316 317 316 316 318 317 313 314 313 311 312 315 316 316 317 317 317 317 317 317 317 317 315 315 315 315 316 317 317 315 314
314 313 313 312 311 311 311 311 312 312 313 313 312 311 312 312 311 311 311 311 310 311 312 312 312 313 313 312 313 314 314 314 314 315 314 313 313 313 313 314 314 315 315 314 316 317 316 314 310 309 312 315 313 312 314 315 315 318 318 317 317 319 317 314 315 314 314 314 313 315 316 317 319 320 320 318 316 315 316 315 315 315 315 315 315 316 315 314
315 314 314 312 311 311 311 312 313 312 313 313 312 311 312 312 311 311 311 310 309 310 309 310 312 313 312 312 314 314 313 313 313 314 314 313 313 313 313 312 313 315 315 314 315 316 315 311 309 311 313 316 315 314 316 317 316 317 318 317 316 317 317 316 317 316 317 317 315 316 316 316 318 319 320 319 317 317 316 316 316 316 315 315 314 314 314 314
316 315 314 313 311 311 311 313 314 312 313 313 312 312 313 312 311 311 310 309 309 310 309 309 312 312 311 313 314 313 312 312 312 312 313 313 312 312 313 312 312 314 315 314 314 315 314 310 311 315 314 316 317 315 317 318 316 316 318 317 316 316 317 317 317 317 317 318 316 316 318 319 318 317 318 319 319 319 318 318 319 317 316 316 315 315 315 314
316 315 315 313 311 311 311 313 313 312 313 312 311 313 313 312 312 310 309 309 309 312 312 310 310 310 311 313 313 310 310 312 311 312 313 313 312 311 313 313 312 313 313 313 314 314 314 313 313 316 316 316 316 316 318 317 315 317 318 316 315 316 318 318 318 318 318 318 317 317 319 321 320 319 318 318 318 319 318 319 320 320 318 317 317 316 315 314
317 315 315 314 311 311 312 312 313 313 311 310 310 312 313 312 311 310 309 310 311 313 313 310 309 310 310 311 311 310 310 312 314 314 311 311 312 312 313 314 313 314 312 313 315 314 315 318 317 317 317 316 317 319 318 316 316 318 315 314 314 316 318 317 318 319 317 318 320 320 319 319 319 318 317 318 318 318 319 319 320 321 321 320 318 316 315 314
317 316 316 314 312 311 311 312 313 313 310 311 311 312 313 311 311 311 310 311 313 313 311 311 311 311 311 310 310 310 309 311 314 313 310 311 312 312 312 313 313 314 312 312 316 315 313 314 314 316 317 317 318 316 314 317 317 315 312 313 315 316 316 317 319 320 318 319 322 322 319 317 317 317 317 318 318 319 319 319 320 321 322 321 318 316 315 313
318 317 316 314 312 311 311 312 312 312 311 311 311 312 313 311 310 310 310 312 315 314 310 311 312 312 312 310 310 311 311 312 312 312 312 312 312 311 310 311 312 315 315 314 316 315 310 308 311 316 316 315 314 309 310 317 316 313 315 317 318 316 316 317 318 318 320 321 321 322 320 317 317 318 319 319 318 319 320 319 320 320 321 321 317 315 314 310
318 318 316 315 313 312 312 313 312 311 312 311 312 312 312 313 313 310 311 312 313 314 311 311 313 312 312 312 312 312 312 313 312 314 314 313 313 312 312 312 313 316 317 316 316 315 313 312 313 314 311 312 314 312 310 311 311 314 319 320 319 318 317 318 319 320 321 320 319 318 318 319 320 320 319 319 317 316 318 319 320 320 322 322 319 315 311 307
318 318 317 315 314 312 313 313 311 311 312 312 313 313 310 314 315 312 312 310 311 315 314 314 314 313 313 314 314 313 314 314 313 315 316 315 315 314 314 315 315 316 316 316 317 317 318 317 315 313 310 312 317 317 313 311 312 316 320 320 318 317 317 318 321 321 321 320 316 314 316 319 320 319 318 317 317 316 316 317 318 319 322 322 321 316 309 306
319 318 317 316 314 313 313 314 311 312 312 312 313 314 312 314 313 311 312 311 314 316 315 316 315 314 314 314 314 313 314 315 314 314 316 316 317 316 317 317 317 317 317 316 317 316 316 318 315 314 313 313 317 318 317 316 315 316 320 320 317 317 318 320 320 318 318 318 313 311 316 319 318 318 318 318 318 318 317 317 317 318 319 319 320 315 308 305
319 318 317 316 315 315 315 314 312 312 312 313 313 313 313 314 312 312 312 314 318 315 314 315 314 313 314 315 315 314 313 314 314 315 316 316 317 317 317 317 316 318 318 317 317 317 316 316 315 316 316 316 317 318 320 319 317 317 320 320 318 318 318 318 318 317 317 317 314 311 316 320 318 317 317 317 318 318 317 317 318 317 316 317 316 311 307 307
318 317 317 316 315 315 315 314 312 312 312 314 313 310 311 311 311 312 311 316 320 317 314 314 314 315 316 317 317 314 313 314 314 315 316 316 318 318 317 316 315 316 317 315 315 316 316 316 316 317 317 317 317 319 320 318 317 317 318 319 319 318 315 313 315 316 315 317 317 315 317 318 317 317 316 315 317 316 315 315 315 315 316 316 314 311 309 309
317 317 316 315 314 314 315 314 312 312 313 315 312 310 310 310 311 313 313 317 320 317 314 314 316 317 317 317 318 315 314 315 315 315 317 317 317 317 317 317 316 315 314 314 317 317 315 316 316 315 316 315 315 318 319 317 317 316 316 319 317 316 315 315 315 313 313 317 318 317 318 317 316 317 317 315 316 316 315 314 313 314 315 315 314 313 313 311
316 316 316 315 314 314 314 313 312 312 314 316 312 310 311 311 313 315 316 318 317 315 316 316 316 318 318 318 319 317 316 317 316 316 317 316 316 317 317 317 316 315 314 314 318 319 315 316 315 314 316 313 310 314 317 315 316 316 317 319 316 315 317 316 317 317 317 320 320 318 318 318 317 319 318 317 317 316 315 315 314 315 315 314 315 315 315 313
316 315 316 315 315 315 314 312 312 312 313 315 315 313 313 312 314 316 317 317 316 315 317 316 315 318 318 317 319 317 316 317 316 316 317 316 316 317 317 317 317 315 314 314 316 317 315 315 316 311 314 313 310 314 317 314 314 315 316 318 317 318 320 318 318 321 321 322 321 319 318 317 318 319 318 318 319 318 318 317 315 315 315 315 316 316 316 313
315 315 316 316 315 315 314 312 312 312 314 315 315 316 315 314 316 319 318 316 316 316 315 315 315 317 317 317 318 316 315 316 316 315 317 316 315 316 316 316 318 315 313 313 313 316 315 313 316 311 310 313 313 315 318 316 314 313 314 316 316 317 320 319 318 319 320 320 320 321 320 317 319 319 318 318 319 318 318 318 317 317 316 318 319 317 315 312
313 315 317 316 315 315 313 312 313 312 314 315 315 316 317 314 315 318 317 315 315 315 314 315 316 316 317 317 317 317 316 317 316 316 316 315 315 316 314 314 317 315 314 314 313 315 314 312 315 313 310 314 316 317 319 319 317 315 316 317 316 315 316 317 318 317 318 320 320 321 322 318 318 320 319 318 318 318 319 319 321 321 319 318 317 315 313 311
313 315 316 314 314 314 312 313 314 313 313 314 315 315 316 315 316 316 315 315 316 315 314 317 317 316 318 317 315 317 317 316 316 316 316 315 314 316 315 315 318 316 314 315 314 314 315 312 314 316 313 316 317 317 317 318 319 318 318 318 318 317 317 318 320 317 316 319 320 320 322 320 318 319 319 318 319 319 319 320 322 324 322 318 313 311 311 310
314 316 315 314 314 313 313 314 314 312 311 313 313 314 314 315 316 316 314 314 315 315 316 319 319 317 317 317 316 317 317 316 316 316 317 316 315 316 316 315 317 315 314 316 316 317 318 315 315 317 317 317 315 311 309 312 316 316 316 318 318 318 318 320 321 319 318 319 318 317 320 321 319 321 321 321 321 319 318 319 320 322 322 318 312 312 311 307
314 315 314 313 313 313 314 315 313 311 311 312 313 313 314 314 314 315 315 313 313 315 317 319 319 316 315 317 318 317 317 318 317 316 317 317 315 315 316 316 316 316 315 317 317 317 318 317 316 317 319 317 314 310 308 309 313 316 315 316 317 318 319 319 319 319 319 320 320 319 321 322 319 319 319 318 319 317 316 318 320 324 324 316 311 314 313 307
314 314 313 313 313 313 315 316 313 311 310 311 312 313 313 314 314 314 315 313 313 314 315 316 318 317 317 318 318 317 317 318 318 316 317 318 316 315 317 317 316 316 316 317 317 316 317 319 318 317 318 319 317 315 314 312 313 316 316 316 317 318 320 319 317 317 319 322 322 322 323 322 319 316 314 314 316 316 315 313 314 322 325 317 311 312 309 306
313 313 313 312 312 313 316 316 313 311 310 310 312 313 314 314 314 314 315 314 315 315 314 316 317 318 318 318 318 318 318 317 319 318 317 319 318 316 316 317 317 315 317 321 319 315 319 321 318 317 319 320 320 320 319 317 315 315 316 317 318 318 319 319 318 318 320 322 322 322 322 321 320 319 315 312 314 315 315 312 310 313 316 313 312 313 310 309
312 314 313 312 312 314 316 315 313 312 311 310 311 312 313 314 314 314 315 315 315 315 316 319 319 317 318 318 317 319 319 317 319 319 318 320 320 317 314 315 317 315 317 321 319 318 324 323 317 318 319 318 319 320 320 318 317 317 317 318 317 318 319 319 319 321 321 321 321 321 321 321 321 319 316 314 314 315 315 315 314 314 313 312 312 310 309 310
310 313 314 314 314 314 315 315 314 312 311 310 311 312 312 313 314 314 314 315 316 316 316 318 318 316 317 317 316 317 318 317 318 319 319 319 319 317 313 312 315 316 317 318 317 319 325 323 318 319 319 317 318 319 319 319 320 319 318 318 318 318 319 320 320 321 321 321 322 321 321 322 321 319 318 318 315 314 315 316 316 316 316 314 313 310 307 307
309 310 311 312 313 314 315 315 314 313 312 310 310 311 311 312 313 314 314 315 317 317 316 317 317 317 317 316 315 317 317 318 318 318 318 318 318 317 315 313 314 315 316 316 316 319 322 321 319 320 320 318 318 318 320 321 321 320 319 319 318 318 319 320 320 320 321 322 322 321 322 323 321 319 319 320 317 316 317 318 317 315 316 317 317 316 314 310
308 309 309 309 312 314 315 314 314 314 313 311 310 310 311 312 312 313 314 315 316 316 317 317 316 316 317 316 316 317 317 317 318 317 317 317 318 318 317 317 315 314 315 317 317 318 320 319 319 320 320 319 319 318 320 321 320 319 319 319 319 319 318 319 319 319 320 321 321 321 322 322 320 319 319 319 319 317 316 317 316 316 318 320 321 319 315 313
307 308 308 309 310 311 313 314 314 314 313 311 310 309 310 311 312 312 313 314 314 315 316 316 315 316 318 318 317 317 316 316 317 317 317 317 317 317 317 318 319 315 314 316 318 317 318 320 321 320 320 321 320 319 320 321 319 319 319 319 319 319 319 319 319 319 320 320 320 321 322 321 320 319 319 319 319 317 316 316 316 316 318 320 320 317 314 314
305 305 307 309 310 310 312 313 313 314 313 311 310 310 309 310 311 312 313 313 313 314 315 315 315 316 317 317 318 318 317 317 317 318 319 318 317 317 317 318 320 318 314 315 318 317 316 319 321 319 320 321 321 321 321 320 320 319 319 319 318 318 319 319 319 319 319 320 321 321 321 321 319 319 319 318 318 317 316 315 315 316 318 318 317 314 314 318
304 303 304 307 308 309 310 311 312 314 313 311 309 310 310 310 311 312 312 313 313 314 315 315 315 317 317 317 317 318 318 317 318 318 319 319 318 318 319 318 319 320 317 314 316 317 317 318 318 318 320 322 321 321 321 320 321 321 320 319 318 318 318 318 318 318 318 319 320 320 320 319 318 319 319 318 318 317 316 316 317 317 317 317 317 314 313 316
Wind_Speed
8 7 7 6 6 7 8 8 7 7 6 6 6 7 7 8 8 8 8 7 6 5 4 2 1 1 1 2 2 2 2 3 5 5 4 4 5 6 5 5 3 2 2 2 5 5 3 2 3 4 3 3 3 1 1 2 2 1 2 2 2 3 2 4 7 5 1 3 8 7 8 7 6 6 3 3 4 2 2 4 3 2 4 2 2 4 6 11
8 7 7 6 6 7 8 8 8 8 7 7 6 7 7 8 8 8 9 8 7 6 4 3 2 1 1 1 2 2 3 5 6 6 4 5 5 6 5 4 4 3 2 2 5 6 3 2 3 3 2 2 1 1 1 2 3 0 1 2 2 2 1 1 5 5 1 2 9 7 5 4 4 6 5 5 6 4 5 6 5 6 7 6 4 5 8 11
9 8 7 7 6 7 8 8 8 8 8 7 7 8 8 8 8 9 9 8 7 6 4 3 2 2 1 2 2 2 4 6 5 4 3 6 6 6 5 4 4 3 3 3 4 5 4 5 5 3 2 2 2 1 1 2 2 0 1 3 2 1 1 1 3 4 1 0 8 8 3 2 1 4 4 5 4 5 9 8 6 8 10 9 8 8 10 12
9 8 7 6 6 7 8 8 8 8 8 8 8 8 8 8 9 9 9 8 8 7 5 4 3 2 1 2 1 2 5 4 2 1 3 6 6 5 5 4 4 3 3 3 4 5 5 6 5 2 2 3 2 1 1 3 1 1 1 1 3 0 1 2 1 3 1 1 4 7 5 4 2 2 4 5 5 6 10 10 9 10 9 8 10 10 12 13
9 8 7 6 6 6 7 8 8 8 8 8 8 9 9 9 9 9 9 9 8 7 5 4 3 2 2 2 1 2 3 3 3 3 5 6 5 5 4 4 3 2 2 3 4 5 5 4 3 2 2 3 1 1 2 3 1 2 1 2 3 1 1 3 0 2 1 0 4 7 6 5 4 3 5 7 9 6 4 5 7 7 2 6 11 12 12 12
10 9 7 7 6 6 6 7 7 7 8 8 9 9 9 9 9 10 9 9 8 7 6 5 4 3 2 1 1 2 2 1 2 4 5 6 5 5 4 4 4 3 2 2 3 3 3 1 1 2 2 2 1 2 2 2 2 0 1 1 1 1 2 3 1 2 1 2 6 6 4 4 4 5 3 7 13 4 4 1 1 2 2 3 10 13 12 13
11 9 8 7 7 6 6 6 6 6 7 8 9 10 10 10 10 10 10 9 9 8 7 5 4 3 2 2 2 2 1 1 2 6 6 5 5 4 4 5 4 3 2 2 3 2 2 2 3 2 2 3 1 3 2 0 1 0 3 3 1 1 2 2 1 2 2 2 3 2 2 4 6 5 1 6 15 6 3 2 2 1 1 3 8 12 12 13
12 10 8 8 8 7 6 6 6 7 8 8 9 10 10 10 10 10 10 10 9 8 7 5 5 3 3 3 2 2 2 2 3 7 7 5 4 3 3 4 3 3 3 4 2 2 2 2 4 2 2 3 2 3 1 1 2 2 4 4 2 1 1 2 1 3 1 1 1 1 3 3 2 1 2 8 14 7 3 2 1 1 3 5 8 11 11 12
12 10 9 9 9 10 8 6 7 8 8 8 9 10 11 10 10 11 10 10 9 8 7 6 4 3 3 3 1 2 2 1 5 9 7 5 4 4 3 3 3 3 4 6 4 2 2 1 2 3 3 4 2 2 1 2 2 3 3 3 3 2 2 2 2 2 1 0 2 4 3 1 1 2 7 11 7 2 4 2 2 3 5 7 8 10 11 11
13 11 11 11 9 10 8 7 8 9 8 8 9 10 11 11 11 11 11 10 9 8 8 6 5 4 3 3 1 3 1 1 6 9 8 6 3 3 4 5 5 4 6 8 6 3 0 3 3 2 5 5 1 2 3 1 2 3 4 3 3 2 2 1 1 3 1 1 2 5 2 1 1 2 7 4 2 2 4 4 3 4 7 7 6 8 9 9
14 13 12 11 10 9 8 8 9 8 7 7 8 9 10 10 11 12 11 10 9 9 8 6 6 4 3 3 2 2 2 3 7 9 8 6 4 4 5 6 6 6 7 8 7 6 5 7 6 2 2 3 3 3 3 2 2 2 2 4 3 2 3 2 1 2 1 1 2 3 3 1 2 5 8 2 4 1 4 5 4 5 6 5 6 6 6 8
14 13 12 11 10 9 8 7 7 6 5 5 6 8 9 9 10 11 10 10 10 9 8 7 6 5 4 2 0 3 4 5 8 9 9 7 6 7 7 7 7 7 7 8 6 6 9 8 6 3 2 3 4 3 3 2 0 1 1 3 2 1 2 2 2 1 2 1 2 1 5 5 8 12 8 4 3 1 3 6 5 6 5 5 5 5 5 7
14 13 13 12 10 10 9 7 7 6 5 6 6 6 8 9 10 11 10 11 10 9 9 7 7 6 3 1 2 5 6 6 7 8 9 9 8 9 9 9 9 9 9 10 7 6 7 4 5 6 3 1 3 1 4 3 2 1 1 1 0 2 2 2 2 1 2 1 1 2 6 5 10 14 5 5 3 2 4 8 6 6 5 5 5 5 6 7
14 14 13 12 11 10 9 8 7 6 6 6 5 5 7 9 10 11 11 11 10 9 8 8 7 5 2 1 3 5 6 6 8 10 10 11 11 11 11 10 10 11 11 13 12 9 8 8 10 9 3 3 3 3 3 3 2 1 0 1 0 2 1 3 2 1 3 1 1 3 7 5 5 7 3 4 3 4 8 9 7 7 6 5 5 5 7 8
14 14 13 12 11 11 10 9 7 6 6 6 6 6 9 11 10 10 11 11 9 9 8 7 7 5 2 2 3 5 6 6 9 11 11 12 11 10 10 11 12 12 12 13 13 11 9 8 7 5 3 2 3 4 3 2 2 2 2 2 1 2 1 2 2 1 1 2 1 5 6 7 5 2 4 2 3 5 9 9 6 7 7 6 6 6 7 7
11 13 13 12 12 11 11 10 8 7 7 7 7 8 11 11 11 12 11 10 10 9 7 6 6 4 2 2 3 4 4 5 8 10 11 11 9 9 11 12 12 11 11 11 10 9 9 8 4 1 2 1 3 4 3 1 1 1 2 2 2 2 2 0 3 1 1 2 4 7 6 6 4 0 3 1 2 4 7 9 8 8 7 7 6 7 7 7
10 11 13 12 11 11 10 9 9 8 8 9 10 11 11 11 11 11 11 10 9 7 5 4 5 3 1 2 3 3 3 4 8 9 10 9 8 12 13 9 8 8 9 8 7 5 6 6 1 1 2 1 1 3 3 3 3 2 1 1 1 2 2 2 2 3 0 1 5 8 8 12 10 4 3 4 4 4 7 10 10 7 6 7 7 7 8 9
11 9 11 12 11 10 9 8 9 9 9 10 12 12 12 12 11 11 11 11 9 6 4 3 3 2 2 3 3 2 4 6 9 8 8 10 11 13 10 6 6 6 6 4 4 3 3 2 1 1 3 1 2 5 4 2 1 3 3 2 1 2 3 4 2 2 1 2 5 8 10 15 16 13 11 6 6 6 10 10 10 8 7 7 7 9 10 10
12 10 8 9 11 10 9 9 8 8 10 11 14 16 14 12 10 8 7 6 5 3 2 4 4 2 2 3 3 5 7 8 9 7 8 11 11 10 9 8 6 4 4 2 1 2 1 1 1 2 4 5 7 7 4 2 3 3 3 2 1 2 4 5 2 2 1 4 8 11 13 15 16 15 16 9 6 7 11 10 10 9 8 8 8 9 10 12
12 11 8 8 11 10 9 9 8 8 11 13 17 16 11 8 5 3 2 3 2 0 1 2 3 2 2 2 5 9 9 7 4 4 8 11 11 10 7 4 3 3 2 2 2 1 2 2 4 5 4 5 7 4 3 5 4 4 3 1 2 3 5 4 0 3 1 4 8 11 13 15 15 15 16 12 5 7 11 12 12 12 10 9 10 11 12 13
13 12 10 8 9 9 9 10 8 9 11 14 16 9 3 5 3 3 3 3 2 1 3 2 3 3 3 4 9 10 6 4 3 2 8 9 8 8 2 0 4 4 0 1 3 1 2 4 7 5 2 3 5 6 6 5 4 3 3 2 2 3 6 5 1 1 2 2 7 8 12 14 14 14 15 13 10 11 13 14 15 15 13 10 12 14 13 10
13 13 12 10 8 8 9 10 9 10 11 13 12 4 2 4 4 5 4 2 2 1 2 3 2 2 4 4 9 7 2 3 3 2 6 6 3 4 2 2 6 4 2 3 3 2 3 6 6 3 7 7 5 5 5 4 3 2 2 2 2 2 5 5 1 1 1 3 5 7 12 13 12 15 16 16 16 15 14 15 17 15 13 12 13 14 11 8
14 13 13 11 9 8 9 10 9 9 10 11 9 4 2 5 6 5 3 1 2 1 1 2 2 3 3 2 7 7 3 3 4 5 8 7 2 1 4 5 4 4 5 6 6 5 4 4 1 5 7 7 6 4 5 4 3 3 3 3 3 1 1 4 0 2 2 3 5 8 12 12 12 14 17 18 17 14 14 15 16 14 14 16 14 10 9 11
15 14 14 12 10 9 10 10 8 7 11 12 10 6 6 8 7 4 2 1 1 1 1 2 1 4 4 3 8 9 2 1 3 6 11 10 5 2 4 4 4 5 6 8 6 5 3 2 2 5 6 6 6 5 7 4 3 4 5 5 4 2 4 4 2 3 3 2 3 8 12 9 8 10 11 8 6 9 13 14 15 15 16 16 13 11 10 11
17 16 15 14 11 10 12 11 7 8 10 10 10 9 9 9 6 3 2 1 2 1 0 2 2 5 6 5 9 7 1 2 1 3 12 10 5 5 3 2 2 5 7 5 3 5 2 2 3 6 4 4 6 5 6 6 3 3 5 8 9 6 5 4 2 4 5 2 0 5 8 5 3 5 6 1 0 6 8 9 14 15 14 13 13 14 12 10
19 18 18 17 13 14 14 8 8 10 8 7 11 13 11 9 7 4 2 2 3 2 2 4 4 6 8 7 7 5 1 3 0 3 10 8 3 4 3 2 0 2 6 5 2 3 1 2 2 6 6 5 5 4 5 6 3 2 2 4 8 5 3 3 1 2 4 3 0 2 6 7 3 6 8 5 5 9 8 10 13 12 10 10 10 11 9 9
20 20 21 19 17 19 13 5 10 12 5 7 15 17 12 10 8 4 1 1 4 3 4 2 1 5 8 6 6 6 2 3 4 4 5 4 3 1 2 6 3 1 4 4 2 2 4 4 3 5 6 5 5 3 5 7 4 0 1 1 3 4 4 3 2 4 4 4 2 3 1 8 9 5 6 8 9 11 12 14 14 11 10 9 8 8 9 10
21 21 22 22 21 21 11 4 13 13 5 8 18 19 14 11 7 2 2 3 2 4 4 1 2 3 4 3 3 2 1 1 4 3 1 1 2 1 3 8 7 6 5 4 5 1 2 6 7 7 5 4 4 1 4 10 4 1 1 1 3 3 3 3 2 3 1 4 4 5 5 7 9 1 3 5 8 9 12 14 15 13 8 5 6 7 8 9
23 23 24 24 22 20 12 4 11 14 8 12 21 20 15 10 5 2 1 4 1 3 2 3 4 3 3 4 2 2 2 2 1 1 1 1 2 2 2 5 5 6 4 2 3 1 1 2 3 5 5 4 2 4 1 7 3 3 5 5 6 5 4 3 1 1 0 4 6 7 9 7 9 3 5 3 5 8 10 11 13 12 6 3 6 8 6 5
26 26 26 26 24 22 16 10 14 15 10 14 21 20 14 7 3 3 2 3 2 2 2 2 3 3 9 10 2 1 2 2 1 2 2 1 2 4 0 2 3 5 2 2 1 2 1 1 1 1 1 2 5 5 3 1 3 7 7 6 6 4 3 2 0 1 2 7 4 7 13 11 8 1 6 4 3 6 8 9 10 10 8 5 6 7 4 2
28 28 28 30 28 25 17 10 18 17 11 14 20 17 11 3 1 5 5 1 0 2 3 2 1 6 14 12 5 2 2 2 2 5 5 3 2 2 2 3 3 3 1 2 1 1 1 1 1 0 1 2 5 6 5 4 2 4 3 3 3 1 1 1 1 1 5 7 1 2 5 10 10 4 4 3 2 4 7 8 10 9 9 6 4 3 2 1
29 30 32 33 30 27 19 9 16 20 11 15 19 10 5 3 1 6 4 1 1 4 5 3 2 7 12 8 4 6 4 2 4 6 5 5 6 6 6 6 6 3 4 6 4 1 1 3 2 2 0 2 5 5 5 2 1 2 3 5 4 2 1 3 3 3 5 5 1 2 1 6 11 8 5 7 8 9 8 8 10 9 9 8 4 2 0 1
33 32 35 36 33 30 23 12 14 20 16 18 15 2 1 5 6 8 8 4 1 1 3 3 2 5 9 7 5 5 3 2 6 5 2 3 6 7 4 2 3 1 2 5 5 3 3 1 3 4 2 4 7 6 4 3 4 6 6 6 6 4 3 5 2 1 5 3 1 1 1 5 8 7 12 17 16 12 8 9 10 9 11 12 5 3 2 1
35 36 37 38 36 33 26 17 16 21 22 18 8 2 4 7 7 12 12 5 1 2 3 4 6 5 5 4 3 5 3 1 5 5 3 4 5 7 6 4 5 1 2 4 4 5 6 3 6 9 4 6 10 5 2 5 6 7 3 2 5 4 3 4 3 3 5 3 0 2 2 5 3 1 6 10 7 5 6 8 8 8 12 12 4 3 0 3
31 36 36 35 35 34 30 23 18 23 23 13 5 6 9 8 8 12 10 4 3 2 3 4 7 7 3 1 1 2 2 1 3 3 4 5 5 6 7 8 10 6 3 4 2 3 4 4 3 3 1 7 9 2 3 5 4 3 1 1 4 3 2 2 2 1 2 4 3 4 4 5 3 3 5 5 4 4 6 6 6 11 12 7 4 3 5 6
26 32 31 30 32 35 35 26 22 27 21 9 7 8 9 10 9 8 6 5 5 7 8 4 4 5 3 1 1 3 1 1 4 4 3 3 3 5 7 6 10 11 8 6 2 2 2 2 1 2 1 3 3 0 2 1 2 4 3 4 3 1 0 2 1 3 1 6 5 3 6 6 5 8 8 9 11 10 7 7 10 13 10 5 6 7 7 7
24 26 23 24 30 36 38 29 25 26 13 5 11 11 9 12 8 4 4 4 6 11 11 6 4 5 6 3 3 5 3 2 4 4 4 3 3 6 7 4 7 14 12 4 1 2 2 0 1 1 1 1 2 0 3 3 1 4 4 5 4 2 1 2 4 1 1 6 4 3 8 8 5 6 2 6 6 8 9 11 13 12 7 7 10 9 7 6
21 18 14 22 34 37 36 32 27 20 4 2 11 12 10 11 7 5 5 4 7 9 7 6 5 5 7 6 5 6 5 3 5 5 4 4 4 7 10 5 5 13 12 2 1 1 2 2 0 1 1 2 1 3 3 2 1 1 1 3 3 2 3 3 4 4 3 5 5 3 5 9 10 7 2 5 6 7 9 10 10 10 9 9 10 9 7 6
13 8 5 20 36 38 37 33 23 14 5 5 10 10 9 8 3 3 5 5 7 7 8 7 5 2 5 7 5 7 7 5 7 7 4 5 4 5 11 9 4 10 13 7 2 1 2 4 2 1 2 1 2 6 6 5 2 2 0 2 0 2 2 3 3 2 3 4 5 3 4 9 8 5 4 8 10 11 11 8 6 8 9 8 6 6 5 4
6 2 1 13 31 39 40 32 16 8 8 9 10 7 4 4 2 2 4 5 3 4 6 7 6 5 5 6 4 6 7 5 7 7 5 7 6 3 8 10 5 6 12 11 5 2 3 3 3 1 2 2 5 6 8 10 8 6 6 7 5 2 0 1 2 0 2 3 4 4 7 10 3 5 6 9 10 12 10 7 6 5 6 6 3 3 4 4
3 2 2 11 31 40 34 19 9 7 7 7 11 8 2 1 1 2 2 0 1 1 1 4 6 6 5 6 4 4 5 5 7 7 4 7 8 4 5 8 8 8 9 9 7 5 5 3 3 4 3 6 4 0 2 4 4 5 7 9 10 8 5 4 4 3 2 3 4 3 8 11 2 5 5 7 7 8 7 6 5 3 4 4 2 3 5 4
3 3 3 16 37 40 23 7 5 7 5 6 9 8 3 1 0 1 1 0 1 1 1 1 3 4 5 6 5 6 7 6 7 7 5 7 9 5 3 5 9 12 10 5 5 5 3 2 3 4 4 4 0 3 1 3 2 1 2 3 6 7 7 8 6 4 4 3 2 0 6 11 3 3 3 4 3 2 3 4 4 3 4 3 2 4 4 4
3 2 3 20 41 35 13 5 7 7 5 5 6 5 4 3 2 2 2 4 3 2 2 1 1 3 4 4 4 7 8 6 7 9 6 5 7 4 3 5 9 11 8 3 2 3 3 1 4 3 1 1 2 1 1 2 1 1 1 1 5 9 9 5 2 3 4 5 4 3 7 12 4 3 1 2 2 1 0 3 4 4 3 1 3 5 3 2
2 1 2 19 41 31 9 5 7 6 5 5 8 10 6 4 5 6 6 6 4 3 3 2 1 1 2 2 4 7 9 6 7 10 6 3 3 1 4 9 11 9 6 3 4 6 5 3 4 3 3 3 3 3 2 2 2 4 5 6 8 12 8 1 1 2 3 10 12 6 9 12 2 3 1 1 3 1 3 4 4 4 4 2 3 4 2 2
2 2 1 11 27 21 7 4 6 7 6 6 9 11 8 5 5 6 7 5 4 3 3 3 2 2 1 2 3 4 8 7 5 7 5 3 1 1 1 8 11 10 6 1 4 6 6 4 6 6 7 8 8 6 4 5 5 4 6 9 11 13 13 6 3 5 8 13 13 8 12 13 1 3 3 1 1 4 6 4 3 6 7 4 4 4 2 2
2 3 1 4 9 8 4 3 6 7 7 8 7 7 9 10 5 3 5 5 5 6 4 1 2 3 2 3 3 3 7 7 3 2 3 3 2 0 2 6 10 11 7 5 6 5 2 2 8 11 11 12 13 8 4 9 8 8 11 14 14 15 16 10 6 9 12 10 8 12 18 18 14 9 6 3 4 6 6 4 5 7 6 5 5 5 3 3
2 3 3 3 2 5 5 3 6 7 8 10 7 5 12 15 6 3 5 5 5 7 5 1 3 6 6 8 9 7 8 6 3 3 4 3 2 0 1 2 6 7 5 5 5 5 3 3 10 13 15 17 18 14 8 12 11 13 14 16 17 16 16 14 13 17 15 8 9 17 18 17 23 20 11 9 8 5 6 7 7 6 5 5 5 3 4 5
2 1 2 1 0 4 7 6 8 9 11 11 6 4 11 15 9 6 7 5 3 5 5 3 6 11 13 14 12 9 9 9 6 6 7 5 3 1 1 1 3 3 3 2 3 4 3 5 10 12 15 19 22 18 11 12 12 13 15 17 19 18 18 19 21 22 17 11 13 20 18 17 22 21 15 13 9 8 10 8 3 3 4 4 4 5 6 7
2 2 2 1 0 2 4 6 8 9 11 12 6 4 9 14 13 9 4 4 4 5 7 7 12 15 14 13 11 9 10 9 8 10 10 7 4 3 1 2 1 1 3 3 1 1 3 5 10 11 13 18 22 20 13 11 10 10 11 13 16 20 23 24 24 22 19 16 17 22 22 21 23 20 14 11 8 9 10 6 2 4 6 5 6 7 7 7
2 1 1 0 1 1 1 3 7 6 7 10 7 5 8 13 16 11 5 6 7 6 9 13 16 14 12 11 10 10 11 11 11 11 9 8 6 4 4 4 1 1 2 4 2 1 3 5 7 6 8 13 18 20 17 11 7 9 10 9 13 19 23 23 19 16 17 19 21 23 24 21 20 17 14 14 11 7 8 7 6 8 8 7 7 7 7 8
3 2 1 1 2 3 2 3 7 6 5 6 7 5 7 12 15 11 6 6 7 7 11 17 16 8 8 10 10 11 12 11 10 6 6 6 5 3 3 3 3 4 3 4 2 2 4 3 2 2 6 11 15 18 17 10 4 7 13 15 19 21 18 14 13 15 18 19 19 19 18 17 17 16 15 16 12 8 10 11 11 12 13 11 8 7 8 9
5 1 1 0 1 4 4 3 6 7 5 6 8 8 8 9 11 10 5 2 6 7 9 13 12 5 5 9 12 14 11 6 4 1 4 3 2 2 3 3 4 5 5 5 3 3 5 5 4 5 6 11 17 17 13 8 4 7 15 23 25 21 14 12 15 19 21 17 15 14 13 16 20 19 17 17 14 12 14 14 13 15 16 15 11 9 10 10
Wind_Direction
173 171 166 158 161 172 179 178 174 174 176 181 183 182 185 186 181 180 177 179 176 176 179 170 180 161 85 91 88 78 85 114 129 113 112 113 99 101 91 84 79 74 90 130 165 170 145 111 111 129 119 68 13 337 84 23 358 255 189 189 199 176 184 180 178 173 98 154 160 166 188 198 168 163 176 176 204 193 175 213 213 221 231 227 107 123 148 157
177 172 170 166 165 176 181 177 176 182 186 186 188 187 189 188 183 180 178 179 177 181 185 181 189 165 114 113 102 92 110 126 118 88 94 127 110 100 90 83 73 78 110 130 168 185 176 130 116 122 105 83 358 340 188 348 343 316 127 218 211 165 140 172 171 154 31 152 154 159 186 216 188 154 165 203 192 182 220 213 206 234 220 193 170 163 157 162
180 173 175 175 175 185 181 175 181 188 188 188 191 190 192 191 185 182 180 178 177 183 186 187 189 171 147 129 125 115 132 139 116 69 99 128 116 101 85 79 75 86 118 131 153 168 168 147 137 130 90 81 28 0 126 9 335 63 195 225 166 131 88 105 172 138 36 27 152 156 164 227 191 134 168 209 195 189 225 221 204 229 224 192 167 164 161 168
183 179 181 180 183 192 185 180 184 187 190 192 194 193 193 190 185 183 181 179 180 186 186 186 184 172 155 139 151 129 145 160 133 100 130 127 120 100 75 74 77 82 105 131 134 128 136 129 116 93 93 104 51 354 66 18 311 120 261 267 78 48 115 118 180 109 52 314 160 145 149 193 135 132 195 194 204 215 229 228 222 234 227 180 159 162 168 173
187 184 185 187 184 189 190 188 184 184 190 196 196 193 193 188 184 183 182 182 183 185 183 182 181 172 159 153 164 148 176 185 140 147 141 130 122 90 67 67 66 82 106 134 128 125 130 113 102 75 73 104 94 133 73 12 322 106 28 357 65 284 85 99 1 101 105 332 151 149 161 171 125 184 215 202 220 230 229 223 230 245 235 149 161 164 169 179
190 188 188 190 185 188 192 190 186 187 191 196 194 190 192 186 182 183 183 184 184 185 181 177 177 171 164 150 137 167 216 220 131 160 149 135 121 81 64 67 68 80 90 142 142 137 130 112 134 113 84 88 53 85 78 0 299 113 99 87 109 328 44 89 85 137 182 177 161 163 155 134 153 212 213 216 234 243 64 69 278 290 47 123 159 161 173 185
190 192 192 189 188 189 190 191 190 193 194 196 191 186 188 183 183 184 182 183 183 182 177 174 174 165 161 143 106 103 152 55 133 168 156 140 122 79 64 72 74 81 97 144 149 140 131 138 132 124 102 99 87 90 73 315 270 189 124 139 163 0 14 43 79 145 201 210 151 128 145 160 195 218 110 225 242 239 105 86 13 14 121 158 164 170 185 188
195 196 195 188 190 191 191 199 198 200 200 197 190 186 184 181 182 182 181 181 179 180 175 173 169 157 159 159 139 108 100 90 163 167 156 149 127 73 59 72 73 92 106 99 109 155 149 115 132 178 108 92 144 113 99 180 90 64 119 143 155 85 42 70 137 154 188 235 91 157 183 176 203 267 291 239 242 231 152 137 128 147 162 184 190 188 190 188
203 197 198 194 190 190 193 203 204 203 202 199 192 188 185 181 181 181 179 177 177 176 170 168 159 153 161 143 138 163 127 77 171 164 154 153 121 66 58 74 85 110 93 73 77 155 182 167 160 202 119 96 155 108 299 231 80 59 111 137 131 95 72 106 155 143 217 221 137 214 199 132 111 321 269 245 240 171 130 156 164 174 186 194 201 199 193 190
210 206 207 208 197 190 197 207 207 202 199 200 193 189 187 182 181 180 177 175 175 171 167 164 147 143 154 146 175 179 131 90 166 162 155 153 122 76 85 90 97 112 89 69 66 64 86 165 146 157 115 101 128 80 328 312 87 85 105 117 104 91 82 80 133 106 304 256 184 242 235 100 105 261 254 239 66 96 162 187 180 202 208 202 202 202 199 196
216 216 206 206 200 192 201 207 202 192 191 198 194 192 189 185 182 179 176 171 168 165 162 155 151 146 127 149 206 161 113 122 155 159 154 147 127 113 110 105 102 103 94 73 63 62 82 122 128 138 120 125 129 83 33 53 96 89 136 147 105 98 111 87 126 103 303 201 180 258 267 193 118 234 245 101 71 168 204 207 198 217 220 208 208 200 199 203
214 210 196 197 195 189 194 195 186 181 183 189 194 193 187 185 182 177 173 166 162 163 158 152 159 155 121 121 108 128 130 130 146 155 154 144 129 118 103 103 101 94 100 89 72 85 102 122 127 82 49 166 151 98 102 103 22 109 172 179 122 175 146 111 122 106 281 188 149 269 269 229 192 227 236 101 109 160 224 230 211 220 226 214 212 204 203 207
207 199 190 192 190 184 183 181 179 181 178 174 183 186 180 178 175 174 169 161 160 157 157 157 157 155 151 141 110 132 137 130 142 150 151 145 129 111 98 99 98 91 98 99 96 101 110 117 101 87 60 122 117 111 130 103 301 149 63 321 179 246 207 115 87 98 213 166 102 246 275 242 198 223 213 100 164 177 236 238 217 218 221 219 212 213 213 206
200 193 189 190 188 181 178 179 178 176 173 165 164 163 160 162 166 168 163 157 158 156 156 159 156 154 155 128 132 151 149 135 142 145 147 145 128 109 102 103 98 95 94 93 93 92 99 99 95 102 62 26 103 149 127 83 343 79 63 297 245 256 177 119 109 177 193 150 58 220 262 269 214 216 134 96 206 209 247 243 221 216 213 222 214 217 223 213
199 193 190 191 187 179 173 176 176 175 174 157 147 144 145 153 158 158 156 153 151 154 154 155 159 155 146 138 148 163 162 152 152 153 152 146 132 113 107 109 102 98 96 91 88 83 84 87 83 94 68 11 154 150 107 78 44 35 249 190 118 251 226 112 129 207 216 90 180 214 249 270 267 257 86 76 202 206 253 253 234 225 216 221 216 219 228 221
205 196 191 190 190 182 172 178 186 180 165 149 140 140 142 147 151 151 151 149 148 149 148 155 161 162 175 149 139 159 166 167 166 167 161 151 145 132 122 112 100 95 94 88 85 77 60 64 61 34 80 142 172 144 124 154 138 52 266 216 143 223 271 0 117 96 330 91 208 229 262 278 271 51 87 98 198 199 252 262 251 237 227 225 224 226 227 227
211 202 192 189 193 190 181 183 181 166 150 143 137 134 138 141 143 144 143 141 138 135 137 145 146 155 204 130 152 179 158 161 166 168 166 160 154 143 130 105 92 97 95 84 78 62 31 49 113 264 75 112 160 160 177 212 213 168 221 239 201 230 267 278 133 101 0 225 224 226 246 264 267 266 214 174 181 215 248 260 257 243 231 226 225 230 229 231
207 204 192 191 194 193 189 176 160 150 140 138 136 131 131 129 129 132 133 130 115 101 111 124 143 194 213 162 166 150 125 141 151 155 161 156 152 147 133 111 113 111 105 85 48 27 12 30 255 161 113 149 167 192 207 218 213 164 183 211 202 223 236 269 271 117 159 229 234 229 236 256 265 269 262 220 174 226 254 260 264 253 238 231 224 229 229 228
197 199 195 191 191 192 192 177 164 155 142 136 131 122 116 112 113 121 129 135 127 118 152 168 175 192 175 146 113 101 112 129 141 145 144 146 149 138 112 107 114 108 132 162 49 29 0 115 133 185 193 201 189 202 213 99 92 129 157 200 199 238 244 255 274 87 185 249 244 242 246 257 262 265 270 257 177 223 258 259 262 255 241 235 227 230 227 227
195 196 195 191 190 192 192 183 177 165 149 141 134 123 117 120 115 126 161 238 217 60 15 158 150 103 89 109 118 120 113 108 120 140 144 147 144 125 94 77 100 97 140 186 110 62 280 178 186 215 209 191 187 176 100 87 93 111 122 173 202 252 266 256 198 79 104 264 254 245 253 260 263 266 270 269 223 232 254 252 254 249 238 233 228 232 229 227
199 198 195 190 184 185 188 180 175 170 160 156 153 144 149 163 156 154 177 242 246 20 8 47 66 75 91 120 142 140 119 86 71 131 153 153 152 150 137 101 159 155 153 87 102 108 231 211 216 220 112 112 153 130 111 113 106 123 162 207 212 228 263 269 309 63 117 254 264 261 266 261 257 263 266 268 255 245 245 244 250 247 239 232 230 235 232 226
198 198 194 188 174 174 183 175 173 175 169 170 177 200 265 187 157 130 148 204 197 56 21 58 75 95 78 126 161 159 140 114 109 168 171 156 171 192 160 162 185 172 124 133 135 142 200 226 225 140 97 92 107 133 143 140 131 151 164 206 236 226 268 274 280 43 153 236 276 286 282 272 260 261 260 257 252 248 241 237 245 249 245 240 234 234 231 224
195 192 192 189 175 171 178 172 171 176 177 183 197 226 200 160 137 121 128 148 144 122 155 176 192 158 116 163 182 174 176 154 151 190 188 169 155 189 154 167 181 136 150 186 184 178 193 241 246 119 132 117 100 138 148 136 166 193 186 206 232 147 265 263 257 64 173 226 301 302 287 276 259 253 251 248 247 251 249 243 247 249 247 248 245 239 227 226
194 188 192 186 171 171 170 165 166 181 192 196 210 213 165 149 142 141 115 61 175 171 182 211 228 178 162 158 176 179 192 177 166 177 183 175 146 150 172 156 141 140 182 198 196 209 199 36 67 140 160 137 121 152 165 174 206 209 210 219 229 211 227 246 350 334 244 192 317 304 290 273 239 236 244 244 247 258 256 253 253 246 241 247 254 254 238 231
195 188 190 181 171 170 162 162 178 193 194 201 211 192 164 162 161 161 119 40 229 139 55 213 194 198 180 136 161 169 123 198 219 164 175 177 144 142 153 109 173 189 181 166 187 241 234 76 123 143 140 133 139 164 188 200 220 221 211 219 235 241 238 243 2 332 278 225 53 332 304 282 177 213 242 222 205 255 249 247 252 249 241 239 246 250 240 229
201 192 187 178 172 164 157 174 198 186 186 208 201 177 166 170 155 152 120 35 251 178 133 180 171 184 170 142 153 143 128 205 0 100 161 174 140 131 151 134 270 207 159 144 189 248 183 97 118 138 142 144 153 194 205 198 221 253 201 221 234 238 245 249 246 274 279 281 280 16 312 292 255 222 232 229 246 258 255 250 251 248 241 234 237 244 238 228
203 199 190 177 172 167 160 188 182 167 179 212 191 173 167 167 148 146 153 305 260 171 128 178 205 170 160 155 162 153 189 180 101 106 152 164 146 100 183 166 147 174 150 146 215 224 145 146 133 133 138 147 174 210 190 185 207 251 77 162 191 185 206 218 206 233 279 324 289 160 230 284 276 241 223 222 235 256 260 262 264 256 243 236 237 238 233 230
201 201 193 180 177 178 175 168 166 172 205 184 175 173 168 165 154 126 186 232 260 125 121 166 119 119 129 135 132 118 309 77 122 159 31 66 141 41 207 184 175 169 157 184 213 215 139 174 175 160 158 178 189 200 160 176 195 7 93 118 124 137 156 152 180 230 300 323 277 161 143 270 275 186 133 211 218 240 251 256 265 265 258 248 250 244 233 230
202 199 196 183 179 190 201 206 184 194 206 167 169 175 166 163 167 83 147 221 203 93 92 132 127 98 117 133 88 62 66 29 62 154 58 73 80 27 204 185 156 137 127 237 223 41 33 212 198 175 184 192 143 33 180 187 177 136 141 106 93 90 85 101 198 167 113 275 255 166 160 248 278 171 134 173 203 222 237 245 257 269 281 270 257 255 240 227
207 202 199 185 181 194 203 223 218 203 188 174 172 169 160 158 170 138 171 225 184 94 67 141 155 148 151 152 137 9 108 47 48 111 95 126 56 27 24 102 86 118 108 352 44 56 60 53 320 228 199 145 106 64 12 10 112 145 148 110 98 94 79 90 71 68 261 263 253 170 180 218 271 177 143 161 192 217 228 237 252 268 280 264 250 253 246 215
209 205 200 189 185 190 188 218 223 201 182 179 168 157 153 128 77 179 189 245 94 130 138 151 142 151 160 161 156 165 133 67 158 156 143 156 116 94 156 149 111 123 197 239 161 57 55 143 176 214 60 108 113 86 45 40 110 154 153 135 136 130 125 182 164 150 244 253 295 90 196 226 246 231 155 181 238 239 234 238 248 262 274 265 245 252 257 185
208 206 202 193 188 187 187 213 210 194 181 165 157 151 162 142 205 217 199 107 169 184 160 153 186 172 167 161 149 158 148 115 173 176 157 161 174 174 188 188 163 165 224 211 182 102 203 192 136 85 270 195 152 109 72 51 265 230 163 157 190 222 222 234 209 186 242 255 13 48 335 247 248 247 242 248 251 237 225 235 251 260 272 270 244 208 48 62
207 205 201 194 189 190 198 212 195 185 173 158 154 129 125 167 202 216 202 174 177 159 117 106 122 165 161 158 163 156 133 141 172 180 166 159 186 198 219 228 169 197 223 177 165 172 203 223 135 155 196 216 195 173 158 173 192 197 177 170 196 205 222 237 215 234 264 272 50 83 209 256 266 256 231 233 239 237 223 229 243 250 263 268 260 102 63 356
209 203 197 193 193 197 203 208 195 180 167 159 162 124 156 192 210 210 208 196 65 32 65 109 119 133 160 165 174 166 152 170 166 164 164 163 189 205 215 227 213 227 67 150 177 187 211 246 178 172 160 176 195 209 151 136 167 197 186 189 213 195 209 236 225 251 277 307 155 157 213 244 267 14 217 230 248 254 242 239 246 254 255 262 279 80 104 241
211 202 196 191 194 200 203 204 194 177 167 160 171 175 182 204 213 213 209 157 104 91 62 92 123 134 175 327 338 210 193 185 160 154 173 178 196 199 194 203 200 182 144 183 198 165 224 272 166 152 99 167 181 214 74 110 157 198 103 255 238 211 199 263 298 280 334 319 251 191 232 253 267 288 241 239 262 241 236 243 254 258 255 265 294 264 237 225
206 202 199 192 193 199 201 201 187 176 173 162 174 189 201 208 210 213 189 129 135 139 120 113 123 141 181 192 248 228 272 103 154 171 202 206 246 216 203 208 191 184 182 181 169 145 196 297 57 54 350 165 176 124 114 161 188 156 167 204 213 5 247 226 258 74 80 273 256 190 251 276 296 275 234 215 238 239 230 235 237 245 255 279 281 256 238 222
200 201 201 195 196 198 198 197 181 173 177 181 185 193 211 216 210 167 143 122 132 139 139 159 175 170 176 170 192 199 192 135 161 190 189 175 248 211 199 233 192 191 201 186 180 216 182 214 34 93 177 130 335 120 92 5 27 133 184 190 133 46 314 232 243 240 170 256 265 203 256 277 270 266 198 151 221 241 231 232 236 242 254 262 257 249 238 226
197 196 202 204 201 197 194 190 173 163 161 248 199 202 209 216 208 155 149 124 131 148 166 185 181 179 183 180 180 175 177 166 166 190 177 171 232 189 172 203 202 197 207 192 18 237 178 210 231 19 217 97 41 202 140 48 346 62 199 170 138 217 208 171 221 245 217 252 272 225 258 270 239 228 184 149 184 221 224 222 229 242 246 245 252 255 243 220
194 188 214 210 202 195 190 181 164 153 166 201 208 212 206 206 198 150 163 145 142 164 185 190 180 181 190 178 150 156 185 185 159 176 192 184 217 181 170 188 192 191 194 180 178 162 163 228 217 61 308 69 146 213 190 167 157 27 161 179 225 286 222 172 181 244 234 245 281 284 276 265 235 187 184 194 196 214 225 223 223 235 239 235 245 262 258 230
184 187 268 201 195 189 180 171 157 162 187 196 210 216 197 193 168 147 178 166 162 190 194 187 177 176 180 172 151 164 193 196 169 184 204 185 200 209 182 181 155 163 183 185 199 155 139 235 219 121 312 219 189 208 200 182 172 177 190 185 185 174 27 251 197 198 258 250 270 278 274 267 232 123 172 192 198 211 216 223 225 225 244 248 245 257 262 245
164 230 253 183 182 177 169 164 163 175 186 206 220 223 207 149 152 164 189 155 72 235 196 173 176 177 162 164 184 177 171 186 188 197 216 198 204 219 193 180 155 138 155 180 206 197 170 205 196 159 193 209 203 311 246 216 179 185 195 189 188 172 153 203 207 181 218 246 237 238 274 275 260 115 178 183 192 207 194 205 222 217 246 255 260 254 258 254
180 225 185 173 175 169 162 174 178 168 191 205 209 217 199 128 180 152 168 267 133 87 43 118 160 171 165 171 181 164 161 179 189 196 222 218 209 207 199 182 157 147 146 163 201 189 139 154 196 189 196 207 39 38 332 304 353 350 251 205 189 175 176 200 210 192 183 225 270 328 275 275 270 115 174 166 172 199 142 177 216 235 236 223 221 241 249 265
201 207 140 170 174 168 164 195 170 169 210 189 178 195 188 205 224 182 201 211 180 140 143 151 153 177 187 177 152 160 171 179 189 200 221 231 218 202 153 151 151 154 156 150 170 144 103 163 214 215 189 103 62 76 100 18 19 230 252 185 191 200 201 202 214 190 171 196 213 189 244 263 287 56 76 117 116 0 70 202 223 250 261 221 236 248 235 243
190 160 75 175 176 173 181 194 168 185 198 170 186 192 182 209 219 209 217 211 193 164 155 181 216 192 184 154 141 171 183 184 201 211 215 210 215 171 137 160 162 169 185 179 166 166 162 184 198 208 230 210 190 198 192 163 188 221 219 196 202 208 200 128 19 207 222 223 211 201 245 253 278 49 311 65 75 260 240 225 231 256 267 256 247 257 239 213
180 165 22 185 182 183 198 177 165 192 185 171 198 195 181 198 211 206 209 204 212 210 180 183 163 113 116 129 106 156 191 203 214 212 215 218 207 22 167 178 177 192 211 142 128 164 173 180 179 190 223 227 217 216 197 169 172 210 218 201 202 205 195 189 211 207 232 235 212 205 244 251 230 119 183 116 31 248 237 223 234 251 253 253 245 241 226 197
204 197 168 184 193 203 225 164 160 185 182 176 195 197 193 202 200 171 184 191 203 205 205 201 132 140 157 162 156 176 201 222 228 175 213 225 185 335 218 191 197 206 197 131 131 156 151 192 194 197 213 228 240 246 148 131 160 197 207 198 197 204 200 196 215 219 227 238 222 218 235 255 267 243 198 184 222 236 249 240 235 246 247 247 243 232 223 208
220 221 186 165 199 208 212 186 166 182 184 180 185 185 196 203 195 146 190 204 186 185 199 205 165 187 196 192 203 208 200 212 221 188 209 207 180 310 76 180 226 227 189 153 162 146 108 218 213 213 222 231 247 250 179 150 180 199 200 199 197 200 201 200 217 226 223 227 243 237 231 247 264 259 239 236 230 222 251 243 234 248 243 234 237 219 220 225
209 254 220 191 200 201 205 191 175 181 181 178 183 183 192 200 191 174 194 193 153 173 186 190 199 205 207 205 209 211 199 203 217 221 222 211 185 191 81 186 239 207 155 177 199 150 152 221 218 220 232 237 247 249 204 177 200 200 194 200 197 194 198 205 220 228 222 218 243 252 243 240 257 262 251 244 228 204 228 234 222 252 240 220 222 209 211 215
201 263 289 322 340 210 210 178 164 179 180 173 179 182 185 197 196 190 179 143 154 193 186 198 212 209 209 210 207 209 203 198 210 221 224 222 193 159 203 245 254 119 142 165 231 165 170 225 226 223 237 242 247 251 230 202 221 225 209 203 198 196 199 206 218 224 223 226 240 253 256 251 254 260 260 258 239 214 229 234 176 222 233 218 215 213 210 211
200 242 244 233 244 250 280 145 153 178 183 173 186 190 182 199 200 192 177 165 175 186 188 208 217 206 205 210 207 216 212 203 214 216 205 213 210 178 203 218 165 83 167 174 201 225 185 223 235 228 244 250 249 253 247 228 229 248 244 223 212 214 211 211 218 221 223 232 238 247 257 259 256 257 265 272 263 229 224 226 213 224 232 224 218 212 211 216
209 21 77 176 223 197 182 149 160 181 189 177 191 186 179 201 202 191 192 193 185 176 188 209 216 198 198 209 210 225 226 215 225 218 166 188 208 177 203 213 152 141 173 179 161 149 183 220 254 209 240 252 248 249 252 245 228 253 260 246 230 228 224 216 218 222 224 231 238 244 253 259 259 257 259 265 263 235 219 225 230 237 237 234 228 213 213 221
204 7 52 188 249 190 175 170 176 188 194 185 191 188 182 194 188 177 187 221 206 200 195 208 212 189 191 212 214 226 231 223 240 234 127 157 196 157 170 175 155 150 162 178 165 146 179 202 220 210 225 247 248 248 251 245 230 239 246 242 236 233 228 218 221 226 226 225 232 236 235 245 256 260 259 261 260 245 237 235 235 240 243 245 239 218 214 225